Orbital Elements at Epoch 2459200.5 (2020-Dec-17.0) TDB
Reference: JPL 20 (heliocentric ecliptic J2000)
Element | Value | Uncertainty (1-sigma) | Units |
e | .043768544993301 | 5.7955e-08 | |
a | 3.13507941853218 | 2.7874e-08 | au |
q | 2.997861553944583 | 1.7391e-07 | au |
i | 22.42839710415959 | 5.2098e-06 | deg |
node | 31.96497065424928 | 1.0086e-05 | deg |
peri | 319.7592611645974 | 5.1384e-05 | deg |
M | 98.67652799565971 | 4.9902e-05 | deg |
tp | 2458644.745987885371 (2019-Jun-10.24598789) | 0.0002825 | TDB |
period | 2027.548480121501 5.55 | 2.7041e-05 7.403e-08 | d yr |
n | .1775543241158046 | 2.368e-09 | deg/d |
Q | 3.272297283119778 | 2.9094e-08 | au |
|
| | Orbit Determination Parameters
Additional Information
|